QPF
0.03 0.02 0.00 0.00 0.00 0.01 0.01 0.00 0.00 0.00 0.00 0.00 0.00 0.00 0.00 0.00 0.00 0.00 0.00 0.00 0.00 0.00 0.00 0.00 0.00 0.00 0.00 0.00 0.00 0.00 0.00 0.00 0.00 0.00 0.00 0.00 0.00 0.00 0.00 0.00 0.00 0.00 0.00 0.00 0.00
0.03 0.04 0.04 0.00 0.00 0.00 0.00 0.00 0.00 0.00 0.00 0.00 0.00 0.00 0.00 0.00 0.00 0.00 0.00 0.00 0.00 0.00 0.00 0.00 0.00 0.00 0.00 0.00 0.00 0.00 0.00 0.00 0.00 0.00 0.00 0.00 0.00 0.00 0.00 0.00 0.00 0.00 0.00 0.00 0.00
0.02 0.02 0.03 0.06 0.01 0.00 0.00 0.00 0.00 0.00 0.00 0.00 0.00 0.00 0.00 0.00 0.00 0.00 0.00 0.00 0.00 0.00 0.00 0.00 0.00 0.00 0.00 0.00 0.00 0.00 0.00 0.00 0.00 0.00 0.00 0.00 0.00 0.00 0.00 0.00 0.00 0.00 0.00 0.00 0.00
0.02 0.01 0.01 0.03 0.07 0.01 0.00 0.00 0.00 0.00 0.00 0.00 0.00 0.00 0.00 0.00 0.00 0.00 0.00 0.00 0.00 0.00 0.00 0.00 0.00 0.00 0.00 0.00 0.00 0.00 0.00 0.00 0.00 0.00 0.00 0.00 0.00 0.00 0.00 0.00 0.00 0.00 0.00 0.00 0.00
0.05 0.02 0.01 0.01 0.04 0.06 0.01 0.00 0.00 0.00 0.00 0.00 0.00 0.00 0.00 0.00 0.00 0.00 0.00 0.00 0.00 0.00 0.00 0.00 0.00 0.00 0.00 0.00 0.00 0.00 0.00 0.00 0.00 0.00 0.00 0.00 0.00 0.00 0.00 0.00 0.00 0.00 0.00 0.00 0.00
0.05 0.03 0.01 0.01 0.01 0.04 0.04 0.01 0.00 0.00 0.00 0.00 0.00 0.00 0.00 0.00 0.00 0.00 0.00 0.00 0.00 0.00 0.00 0.00 0.00 0.00 0.00 0.00 0.00 0.00 0.00 0.00 0.00 0.00 0.00 0.00 0.00 0.00 0.00 0.00 0.00 0.00 0.00 0.00 0.00
0.05 0.05 0.02 0.02 0.02 0.03 0.04 0.05 0.01 0.00 0.00 0.00 0.00 0.00 0.00 0.00 0.00 0.00 0.00 0.00 0.00 0.00 0.00 0.00 0.00 0.00 0.00 0.00 0.00 0.00 0.00 0.00 0.00 0.00 0.00 0.00 0.00 0.00 0.00 0.00 0.00 0.00 0.00 0.00 0.00
0.04 0.04 0.04 0.02 0.03 0.04 0.04 0.03 0.02 0.00 0.00 0.00 0.00 0.00 0.00 0.00 0.00 0.00 0.00 0.00 0.00 0.00 0.00 0.00 0.00 0.00 0.00 0.00 0.00 0.00 0.00 0.00 0.00 0.00 0.00 0.00 0.00 0.00 0.00 0.00 0.00 0.00 0.00 0.00 0.00
0.01 0.02 0.02 0.03 0.02 0.03 0.05 0.02 0.01 0.02 0.02 0.01 0.00 0.00 0.00 0.00 0.00 0.00 0.00 0.00 0.00 0.00 0.00 0.00 0.00 0.00 0.00 0.00 0.00 0.00 0.00 0.00 0.00 0.00 0.00 0.00 0.00 0.00 0.00 0.00 0.00 0.00 0.00 0.00 0.00
0.04 0.01 0.02 0.02 0.02 0.03 0.08 0.07 0.04 0.04 0.02 0.00 0.00 0.00 0.00 0.00 0.00 0.00 0.00 0.00 0.00 0.00 0.00 0.00 0.00 0.00 0.00 0.00 0.00 0.00 0.00 0.00 0.00 0.00 0.00 0.00 0.00 0.00 0.00 0.00 0.00 0.00 0.00 0.00 0.00
0.03 0.02 0.01 0.03 0.03 0.05 0.13 0.11 0.06 0.04 0.01 0.00 0.00 0.00 0.00 0.00 0.00 0.00 0.00 0.00 0.00 0.00 0.00 0.00 0.00 0.00 0.00 0.00 0.00 0.00 0.00 0.00 0.00 0.00 0.00 0.00 0.00 0.00 0.00 0.00 0.00 0.00 0.00 0.00 0.00
0.01 0.02 0.00 0.04 0.04 0.06 0.09 0.01 0.00 0.00 0.01 0.00 0.00 0.00 0.00 0.00 0.00 0.00 0.00 0.00 0.00 0.00 0.00 0.00 0.00 0.00 0.00 0.00 0.00 0.00 0.00 0.00 0.00 0.00 0.00 0.00 0.00 0.00 0.00 0.00 0.00 0.00 0.00 0.00 0.00
0.01 0.01 0.01 0.02 0.07 0.06 0.03 0.00 0.01 0.00 0.00 0.00 0.00 0.00 0.00 0.00 0.00 0.00 0.00 0.00 0.00 0.00 0.00 0.00 0.00 0.00 0.00 0.00 0.00 0.00 0.00 0.00 0.00 0.00 0.00 0.00 0.00 0.00 0.00 0.00 0.00 0.00 0.00 0.00 0.00
0.03 0.01 0.02 0.01 0.04 0.02 0.02 0.02 0.02 0.02 0.02 0.00 0.00 0.00 0.00 0.00 0.00 0.00 0.00 0.00 0.00 0.00 0.00 0.00 0.00 0.00 0.00 0.00 0.00 0.00 0.00 0.00 0.00 0.00 0.00 0.00 0.00 0.00 0.00 0.00 0.00 0.00 0.00 0.00 0.00
0.02 0.02 0.01 0.04 0.03 0.02 0.01 0.04 0.04 0.03 0.01 0.00 0.00 0.00 0.00 0.00 0.00 0.00 0.00 0.00 0.00 0.00 0.00 0.00 0.00 0.00 0.00 0.00 0.00 0.00 0.00 0.00 0.00 0.00 0.00 0.00 0.00 0.00 0.00 0.00 0.00 0.00 0.00 0.00 0.00
0.01 0.04 0.02 0.02 0.02 0.01 0.01 0.04 0.04 0.01 0.00 0.00 0.00 0.00 0.00 0.00 0.00 0.00 0.00 0.00 0.00 0.00 0.00 0.00 0.00 0.00 0.00 0.00 0.00 0.00 0.00 0.00 0.00 0.00 0.00 0.00 0.00 0.00 0.00 0.00 0.00 0.00 0.00 0.00 0.00
0.01 0.03 0.04 0.01 0.01 0.02 0.03 0.05 0.03 0.01 0.00 0.00 0.00 0.01 0.00 0.00 0.00 0.00 0.00 0.00 0.00 0.00 0.00 0.00 0.00 0.00 0.00 0.00 0.00 0.00 0.00 0.00 0.00 0.00 0.00 0.00 0.00 0.00 0.00 0.00 0.00 0.00 0.00 0.00 0.00
0.01 0.02 0.03 0.01 0.00 0.02 0.03 0.02 0.01 0.00 0.00 0.00 0.00 0.00 0.00 0.00 0.00 0.00 0.00 0.00 0.00 0.00 0.00 0.00 0.00 0.00 0.00 0.00 0.00 0.00 0.00 0.00 0.00 0.00 0.00 0.00 0.00 0.00 0.00 0.00 0.00 0.00 0.00 0.00 0.00
0.01 0.01 0.01 0.01 0.02 0.02 0.01 0.00 0.00 0.00 0.00 0.00 0.01 0.00 0.00 0.00 0.00 0.01 0.00 0.00 0.00 0.00 0.00 0.00 0.00 0.00 0.00 0.00 0.00 0.00 0.00 0.00 0.00 0.00 0.00 0.00 0.00 0.00 0.00 0.00 0.00 0.00 0.00 0.00 0.00
0.01 0.01 0.00 0.01 0.04 0.01 0.00 0.00 0.00 0.00 0.00 0.00 0.00 0.00 0.00 0.00 0.01 0.01 0.00 0.00 0.00 0.00 0.00 0.00 0.00 0.00 0.00 0.00 0.00 0.00 0.00 0.00 0.00 0.00 0.00 0.00 0.00 0.00 0.00 0.00 0.00 0.00 0.00 0.00 0.00
0.01 0.01 0.00 0.00 0.04 0.01 0.00 0.00 0.00 0.00 0.00 0.00 0.00 0.00 0.00 0.00 0.00 0.00 0.00 0.00 0.00 0.00 0.00 0.00 0.00 0.00 0.00 0.00 0.00 0.00 0.00 0.00 0.00 0.00 0.00 0.00 0.00 0.00 0.00 0.00 0.00 0.00 0.00 0.00 0.00
0.01 0.01 0.00 0.01 0.02 0.00 0.00 0.00 0.00 0.00 0.00 0.00 0.00 0.00 0.00 0.00 0.00 0.00 0.00 0.00 0.00 0.00 0.00 0.00 0.00 0.00 0.00 0.00 0.00 0.00 0.00 0.00 0.00 0.00 0.00 0.00 0.00 0.00 0.00 0.00 0.00 0.00 0.00 0.00 0.00
0.01 0.00 0.01 0.04 0.00 0.00 0.00 0.00 0.00 0.00 0.00 0.00 0.00 0.00 0.00 0.00 0.00 0.00 0.00 0.00 0.00 0.00 0.00 0.00 0.00 0.00 0.00 0.00 0.00 0.00 0.00 0.00 0.00 0.00 0.00 0.00 0.00 0.00 0.00 0.00 0.00 0.00 0.00 0.00 0.00
0.01 0.01 0.01 0.04 0.00 0.00 0.00 0.00 0.00 0.00 0.00 0.00 0.00 0.00 0.00 0.00 0.00 0.00 0.00 0.00 0.00 0.00 0.00 0.00 0.00 0.00 0.00 0.00 0.00 0.00 0.00 0.00 0.00 0.00 0.00 0.00 0.00 0.00 0.00 0.00 0.00 0.00 0.00 0.00 0.00
0.01 0.01 0.00 0.00 0.00 0.00 0.00 0.00 0.00 0.00 0.00 0.00 0.00 0.00 0.00 0.00 0.00 0.00 0.00 0.00 0.00 0.00 0.00 0.00 0.00 0.00 0.00 0.00 0.00 0.00 0.00 0.00 0.00 0.00 0.00 0.00 0.00 0.00 0.00 0.00 0.00 0.00 0.00 0.00 0.00
0.00 0.00 0.00 0.00 0.00 0.00 0.00 0.00 0.00 0.00 0.00 0.00 0.00 0.00 0.00 0.00 0.00 0.00 0.00 0.00 0.00 0.00 0.00 0.00 0.00 0.00 0.00 0.00 0.00 0.00 0.00 0.00 0.00 0.00 0.00 0.00 0.00 0.00 0.00 0.00 0.00 0.00 0.00 0.00 0.00
0.00 0.00 0.00 0.00 0.00 0.00 0.00 0.00 0.00 0.00 0.00 0.00 0.00 0.00 0.00 0.00 0.00 0.00 0.00 0.00 0.00 0.00 0.00 0.00 0.00 0.00 0.00 0.00 0.00 0.00 0.00 0.00 0.00 0.00 0.00 0.00 0.00 0.00 0.00 0.00 0.00 0.00 0.00 0.00 0.00
MSLP
1014.32 1014.64 1014.87 1015.29 1015.60 1016.01 1016.30 1016.61 1016.99 1017.41 1017.61 1017.70 1017.79 1017.78 1017.71 1017.71 1017.41 1017.11 1017.11 1016.93 1016.80 1016.46 1016.20 1015.95 1015.65 1015.56 1015.17 1015.38 1015.53 1015.87 1016.77 1017.20 1016.71 1016.52 1015.53 1015.17 1015.33 1015.58 1015.59 1015.98 1016.41 1016.74 1017.06 1016.92 1017.06
1013.93 1014.37 1014.71 1014.99 1015.37 1015.76 1016.22 1016.56 1016.88 1017.22 1017.50 1017.72 1017.80 1017.84 1017.85 1017.78 1017.70 1017.43 1016.81 1016.72 1016.69 1016.55 1016.49 1016.55 1016.44 1016.20 1015.98 1015.91 1015.95 1016.29 1017.08 1016.89 1016.36 1016.15 1015.94 1015.58 1015.15 1015.33 1015.82 1016.23 1016.69 1016.91 1017.08 1017.14 1017.33
1013.58 1013.87 1014.36 1014.77 1015.14 1015.56 1015.98 1016.41 1016.76 1017.13 1017.35 1017.58 1017.76 1017.80 1017.90 1017.96 1018.12 1017.00 1016.70 1016.72 1016.64 1016.60 1016.83 1016.76 1016.78 1016.59 1016.47 1016.22 1016.24 1016.59 1016.81 1016.64 1016.36 1016.26 1016.15 1016.02 1015.81 1015.56 1015.77 1016.50 1016.21 1016.47 1017.05 1017.39 1017.74
1013.39 1013.52 1013.83 1014.38 1014.85 1015.30 1015.73 1016.17 1016.58 1017.02 1017.25 1017.47 1017.68 1017.72 1017.80 1017.96 1017.88 1016.79 1016.71 1016.65 1016.58 1016.76 1016.95 1016.86 1016.95 1016.81 1016.80 1016.58 1016.40 1016.74 1016.67 1016.61 1016.57 1016.53 1016.30 1016.33 1016.21 1016.11 1016.05 1015.96 1015.67 1016.00 1016.39 1017.32 1017.90
1013.02 1013.30 1013.54 1013.88 1014.41 1014.90 1015.47 1015.95 1016.41 1016.80 1017.16 1017.41 1017.63 1017.74 1017.83 1018.04 1017.31 1016.55 1016.58 1016.58 1016.63 1016.90 1017.02 1017.16 1017.07 1016.98 1016.94 1016.84 1016.76 1016.86 1016.88 1016.86 1016.86 1016.79 1016.81 1016.61 1016.89 1016.91 1016.47 1016.35 1016.12 1016.56 1016.92 1017.48 1017.95
1012.86 1013.16 1013.34 1013.59 1013.95 1014.52 1015.11 1015.66 1016.22 1016.67 1016.99 1017.33 1017.53 1017.70 1017.86 1017.83 1016.58 1016.57 1016.61 1016.65 1016.73 1016.90 1017.01 1017.18 1017.07 1016.84 1016.95 1017.05 1017.19 1017.24 1017.31 1017.38 1017.17 1017.21 1017.19 1017.07 1017.21 1017.09 1016.93 1016.84 1017.06 1017.17 1017.33 1017.67 1017.91
1012.85 1012.86 1013.13 1013.39 1013.69 1014.21 1014.73 1015.31 1016.00 1016.56 1016.87 1017.25 1017.50 1017.70 1017.81 1017.18 1016.61 1016.71 1016.76 1016.79 1016.73 1016.82 1016.95 1016.95 1016.76 1016.88 1017.13 1017.35 1017.47 1017.70 1018.10 1018.07 1017.82 1017.63 1017.58 1017.44 1017.59 1017.40 1017.49 1017.55 1017.86 1018.07 1017.97 1018.02 1018.05
1012.47 1012.92 1013.10 1013.20 1013.48 1013.93 1014.44 1015.15 1015.62 1016.31 1016.75 1017.35 1017.58 1017.93 1017.52 1016.74 1016.79 1016.84 1016.71 1016.71 1016.71 1016.74 1016.82 1016.62 1016.68 1017.01 1017.36 1017.78 1018.12 1018.62 1018.98 1019.14 1018.43 1018.16 1017.98 1017.95 1017.98 1017.69 1017.69 1018.17 1018.41 1018.53 1018.53 1018.48 1018.43
1011.89 1012.47 1012.79 1013.06 1013.29 1013.64 1014.28 1014.97 1015.55 1016.15 1016.65 1017.52 1017.69 1018.04 1017.51 1016.79 1016.98 1016.73 1016.78 1016.89 1016.85 1016.84 1016.75 1016.65 1016.83 1017.66 1018.02 1018.75 1019.57 1019.78 1019.77 1019.73 1019.25 1018.67 1018.66 1018.73 1018.73 1018.00 1017.99 1018.23 1018.71 1019.00 1019.04 1018.97 1019.15
1011.53 1011.91 1012.46 1012.86 1013.05 1013.38 1014.08 1014.88 1015.64 1016.48 1017.11 1017.47 1017.70 1018.36 1017.36 1016.83 1016.80 1016.80 1016.94 1017.05 1017.15 1017.17 1017.26 1017.35 1017.90 1018.45 1018.93 1019.51 1019.65 1019.91 1020.26 1019.97 1019.55 1019.11 1019.20 1019.33 1018.91 1018.55 1018.38 1018.65 1018.97 1019.04 1019.14 1019.47 1019.57
1011.07 1011.57 1012.07 1012.36 1012.98 1013.14 1014.13 1015.16 1016.02 1016.17 1016.48 1016.60 1016.63 1016.79 1016.65 1016.74 1016.85 1017.06 1017.08 1017.30 1017.49 1017.76 1018.20 1018.33 1018.75 1018.65 1018.94 1019.30 1019.47 1019.94 1020.11 1019.95 1019.44 1019.06 1019.53 1019.61 1019.37 1018.86 1018.39 1018.56 1018.61 1018.90 1019.13 1019.40 1019.91
1010.87 1011.22 1011.88 1012.05 1012.40 1012.95 1013.64 1013.71 1013.78 1013.90 1015.51 1016.41 1016.56 1016.59 1016.64 1016.62 1017.16 1017.28 1017.26 1017.79 1018.05 1018.51 1018.87 1019.36 1019.12 1019.04 1019.48 1019.66 1019.90 1020.24 1020.25 1020.16 1019.58 1019.46 1019.75 1019.79 1019.61 1018.78 1018.22 1017.82 1017.60 1017.80 1018.35 1019.03 1020.09
1010.61 1010.91 1011.26 1011.79 1012.33 1012.80 1012.96 1013.31 1013.33 1013.39 1015.36 1016.43 1016.57 1016.59 1016.75 1016.93 1017.12 1017.22 1017.52 1018.02 1018.53 1019.05 1019.35 1019.46 1019.04 1018.94 1019.40 1019.89 1020.17 1020.41 1020.50 1020.38 1020.32 1020.09 1020.20 1020.32 1019.68 1018.69 1017.40 1017.01 1016.91 1017.16 1017.53 1018.37 1019.36
1010.21 1010.51 1010.80 1011.80 1012.93 1011.85 1012.49 1013.46 1013.33 1013.79 1015.71 1016.36 1016.26 1015.97 1016.58 1016.90 1017.32 1017.07 1017.38 1017.95 1018.78 1019.19 1019.78 1019.69 1019.03 1019.04 1019.44 1019.87 1020.10 1020.49 1020.34 1020.53 1020.97 1021.20 1021.51 1021.23 1020.56 1019.04 1017.67 1017.02 1016.75 1016.84 1017.45 1018.14 1019.25
1009.85 1010.27 1010.71 1011.43 1011.63 1011.71 1012.08 1013.27 1013.68 1014.42 1015.50 1014.94 1015.39 1014.89 1015.81 1016.83 1016.91 1017.27 1017.50 1017.95 1018.64 1019.14 1019.72 1019.27 1019.16 1019.26 1019.42 1019.42 1019.81 1020.15 1020.33 1020.94 1021.61 1022.15 1022.37 1022.23 1021.92 1018.97 1018.19 1017.17 1016.95 1017.39 1018.13 1018.94 1019.75
1009.59 1010.06 1010.62 1010.98 1011.45 1011.76 1011.74 1013.06 1013.85 1015.58 1014.12 1014.70 1014.63 1014.99 1016.06 1016.67 1017.00 1017.50 1017.83 1018.04 1018.47 1019.27 1019.41 1019.42 1019.05 1019.06 1018.97 1019.06 1019.47 1020.00 1020.84 1021.77 1022.69 1023.28 1023.23 1022.24 1021.86 1019.38 1018.17 1017.09 1017.23 1017.93 1018.77 1019.64 1020.46
1009.44 1009.93 1010.29 1010.71 1010.24 1011.00 1011.95 1012.65 1013.34 1012.66 1014.44 1014.36 1014.00 1014.54 1015.23 1016.06 1017.14 1017.21 1017.77 1018.19 1018.48 1019.48 1019.59 1019.67 1019.42 1019.03 1018.82 1019.26 1019.75 1020.10 1021.32 1022.96 1024.05 1024.53 1023.54 1022.59 1022.25 1019.34 1017.60 1016.98 1017.20 1017.95 1019.10 1020.18 1021.02
1009.28 1009.97 1010.05 1010.24 1010.64 1011.09 1011.58 1011.60 1011.31 1011.85 1012.64 1012.80 1013.24 1014.54 1015.06 1015.75 1016.53 1017.07 1017.62 1017.86 1018.29 1018.74 1019.40 1019.60 1019.89 1019.00 1018.63 1018.51 1018.98 1020.11 1020.91 1022.25 1023.46 1024.52 1023.96 1023.03 1021.38 1018.42 1017.50 1017.34 1017.55 1018.07 1019.48 1020.56 1021.45
1009.16 1009.64 1009.91 1010.09 1010.45 1010.67 1010.35 1009.79 1009.67 1010.84 1011.76 1012.48 1013.67 1014.29 1014.80 1015.13 1015.56 1016.66 1017.04 1017.14 1017.66 1018.18 1018.61 1019.11 1019.09 1018.65 1018.48 1018.33 1018.48 1020.00 1020.83 1021.76 1023.18 1024.78 1024.35 1022.55 1020.62 1018.22 1017.59 1017.93 1018.57 1019.37 1020.07 1020.93 1021.53
1009.15 1009.63 1009.21 1009.26 1009.97 1010.67 1010.73 1009.31 1010.19 1010.25 1010.81 1011.33 1012.43 1013.37 1013.58 1014.50 1015.18 1015.86 1016.48 1016.07 1016.99 1017.37 1017.79 1018.10 1018.87 1018.83 1018.74 1018.47 1018.90 1019.08 1020.21 1021.72 1023.04 1024.31 1024.08 1022.34 1020.96 1018.83 1018.08 1018.50 1019.20 1019.94 1020.50 1020.96 1021.27
1009.18 1009.49 1008.17 1008.68 1009.77 1010.31 1010.09 1010.03 1009.98 1009.83 1010.04 1010.72 1011.93 1012.44 1012.87 1013.57 1014.69 1015.25 1015.38 1015.58 1016.04 1016.71 1017.40 1017.98 1018.24 1019.36 1018.95 1018.68 1018.62 1019.38 1019.79 1020.71 1021.67 1022.77 1022.88 1022.30 1020.50 1018.93 1018.53 1018.33 1018.98 1019.75 1020.31 1020.67 1021.12
1008.64 1009.18 1008.08 1008.56 1009.86 1009.22 1009.32 1010.03 1009.54 1009.74 1010.24 1010.57 1010.97 1011.52 1012.13 1013.25 1014.50 1015.05 1014.82 1014.88 1015.12 1015.79 1016.90 1017.66 1018.38 1019.04 1018.88 1018.97 1018.94 1018.67 1019.07 1019.82 1020.92 1022.29 1022.45 1021.94 1020.17 1018.93 1018.56 1018.39 1018.85 1019.60 1020.08 1020.47 1020.80
1008.06 1008.41 1008.27 1008.27 1008.73 1008.80 1009.15 1009.57 1009.61 1009.55 1009.99 1010.41 1010.56 1010.49 1011.49 1013.04 1014.46 1014.53 1014.76 1014.86 1015.03 1015.78 1016.18 1017.22 1018.24 1019.31 1019.68 1019.71 1019.20 1018.98 1019.18 1019.48 1020.04 1020.79 1021.14 1021.39 1020.08 1019.18 1018.72 1018.57 1018.72 1019.24 1019.67 1020.05 1020.43
1007.89 1008.51 1008.76 1008.14 1007.93 1008.87 1009.11 1009.17 1009.53 1009.28 1009.18 1009.54 1009.89 1010.21 1011.72 1013.17 1013.79 1014.31 1014.89 1015.19 1015.24 1015.76 1016.40 1016.73 1017.99 1018.31 1018.38 1018.21 1018.45 1019.00 1019.06 1019.34 1019.61 1020.10 1020.03 1019.91 1019.84 1019.53 1019.10 1018.90 1019.05 1019.26 1019.53 1020.18 1020.49
1007.14 1007.43 1007.08 1007.51 1007.30 1007.88 1008.59 1008.34 1008.74 1008.96 1008.63 1008.57 1009.81 1009.65 1010.49 1012.70 1013.93 1014.24 1014.69 1015.20 1015.80 1016.01 1016.79 1017.19 1018.29 1018.73 1018.73 1018.63 1018.84 1018.56 1018.73 1018.87 1018.88 1019.00 1019.08 1019.04 1019.18 1018.81 1018.51 1018.43 1018.65 1018.98 1019.49 1019.91 1020.12
1006.58 1006.81 1007.20 1006.63 1006.79 1007.23 1007.46 1007.21 1007.18 1008.14 1007.92 1007.70 1008.12 1009.34 1009.55 1010.34 1011.28 1012.82 1013.34 1014.29 1015.23 1016.46 1016.95 1017.52 1018.74 1019.42 1019.77 1019.63 1019.61 1019.24 1018.71 1018.52 1018.35 1018.60 1018.65 1018.83 1018.49 1018.14 1017.83 1017.97 1018.41 1018.59 1019.06 1019.41 1019.62
1006.03 1005.89 1005.84 1005.56 1006.20 1006.01 1006.01 1006.05 1006.01 1006.67 1007.55 1007.34 1007.94 1008.91 1009.80 1010.01 1010.81 1011.84 1012.78 1013.66 1014.32 1015.39 1016.95 1018.03 1019.14 1020.51 1021.23 1021.15 1020.64 1019.67 1018.74 1018.24 1017.95 1017.82 1018.04 1017.94 1017.20 1017.48 1017.78 1017.73 1017.96 1018.27 1018.55 1018.93 1019.27
Thickness
5556 5564 5571 5576 5582 5587 5592 5597 5600 5603 5609 5615 5620 5626 5632 5638 5647 5654 5655 5666 5672 5679 5684 5690 5695 5696 5703 5701 5704 5699 5673 5670 5685 5683 5699 5711 5710 5715 5720 5713 5715 5715 5711 5720 5722
5547 5552 5560 5566 5573 5578 5582 5586 5591 5596 5601 5606 5612 5617 5623 5629 5635 5641 5656 5660 5666 5672 5676 5676 5678 5683 5684 5690 5692 5681 5666 5675 5693 5695 5698 5704 5710 5709 5709 5705 5706 5708 5713 5716 5717
5536 5543 5550 5557 5562 5568 5574 5578 5583 5587 5593 5598 5603 5609 5614 5620 5622 5637 5648 5653 5659 5666 5669 5671 5674 5676 5677 5683 5686 5678 5671 5682 5693 5694 5693 5697 5701 5708 5700 5697 5705 5705 5707 5708 5710
5528 5534 5540 5547 5554 5559 5565 5571 5575 5579 5584 5589 5594 5600 5606 5612 5608 5633 5640 5647 5653 5657 5660 5662 5664 5665 5664 5669 5678 5673 5678 5682 5686 5688 5691 5690 5696 5699 5702 5707 5713 5711 5712 5705 5703
5523 5527 5533 5539 5546 5551 5556 5561 5566 5570 5575 5580 5585 5591 5597 5599 5608 5628 5633 5639 5645 5648 5650 5651 5653 5656 5655 5661 5668 5666 5673 5676 5679 5681 5682 5687 5680 5685 5695 5701 5705 5703 5703 5700 5699
5517 5522 5527 5532 5538 5544 5548 5553 5556 5561 5566 5571 5577 5583 5588 5587 5611 5616 5625 5630 5635 5638 5640 5643 5647 5654 5653 5655 5656 5661 5664 5665 5670 5672 5673 5677 5677 5682 5689 5695 5692 5693 5694 5693 5693
5507 5517 5521 5526 5532 5535 5541 5545 5547 5551 5557 5563 5568 5574 5578 5587 5603 5608 5614 5621 5627 5630 5631 5638 5646 5646 5648 5646 5654 5653 5649 5651 5659 5664 5665 5671 5666 5674 5680 5680 5683 5683 5684 5685 5688
5502 5510 5513 5520 5525 5529 5532 5534 5537 5540 5545 5550 5557 5563 5568 5587 5594 5599 5606 5612 5619 5624 5628 5636 5640 5638 5638 5641 5637 5635 5631 5629 5649 5655 5658 5659 5649 5670 5670 5669 5670 5673 5674 5677 5682
5496 5502 5507 5514 5518 5523 5526 5526 5528 5530 5534 5536 5546 5551 5561 5580 5583 5592 5597 5601 5609 5615 5621 5627 5630 5623 5625 5615 5611 5615 5611 5616 5628 5642 5643 5644 5642 5660 5665 5662 5662 5661 5663 5667 5671
5487 5495 5502 5507 5513 5517 5519 5520 5520 5517 5520 5528 5536 5542 5556 5567 5575 5582 5587 5592 5597 5602 5606 5609 5606 5606 5605 5604 5598 5603 5604 5611 5616 5633 5629 5628 5634 5647 5653 5655 5653 5656 5658 5658 5661
5481 5486 5495 5501 5505 5511 5507 5505 5507 5511 5519 5530 5543 5548 5555 5562 5567 5571 5578 5582 5587 5589 5585 5594 5591 5595 5607 5605 5606 5601 5602 5608 5618 5625 5623 5618 5625 5638 5647 5648 5650 5652 5654 5653 5652
5473 5478 5486 5498 5501 5504 5502 5511 5523 5528 5518 5519 5528 5539 5545 5553 5554 5561 5569 5570 5573 5572 5578 5578 5581 5592 5595 5595 5596 5598 5599 5601 5613 5617 5614 5617 5619 5633 5641 5646 5653 5657 5652 5651 5641
5464 5472 5481 5490 5495 5493 5503 5512 5517 5524 5508 5507 5518 5530 5534 5542 5545 5551 5558 5559 5560 5561 5566 5568 5582 5586 5587 5584 5584 5585 5587 5592 5595 5601 5605 5603 5611 5623 5640 5645 5650 5652 5655 5650 5646
5455 5467 5475 5476 5478 5494 5498 5502 5509 5512 5485 5495 5509 5519 5525 5531 5534 5545 5550 5552 5552 5551 5553 5562 5575 5578 5576 5576 5576 5571 5584 5586 5585 5584 5575 5591 5578 5615 5633 5638 5648 5648 5647 5645 5634
5445 5456 5464 5466 5480 5488 5499 5495 5498 5496 5484 5498 5505 5523 5522 5525 5534 5536 5541 5545 5541 5545 5549 5555 5563 5568 5568 5575 5574 5572 5577 5573 5572 5569 5571 5573 5570 5602 5617 5632 5638 5634 5630 5625 5620
5434 5444 5453 5456 5469 5482 5491 5489 5484 5468 5488 5484 5507 5513 5516 5517 5522 5522 5529 5536 5538 5537 5545 5547 5558 5561 5565 5572 5572 5570 5565 5560 5551 5549 5526 5563 5568 5580 5612 5627 5627 5623 5615 5610 5605
5424 5430 5442 5453 5478 5477 5480 5479 5474 5487 5468 5490 5511 5517 5522 5520 5512 5517 5521 5523 5523 5525 5526 5539 5546 5554 5561 5557 5561 5561 5554 5507 5512 5533 5527 5558 5559 5575 5606 5621 5622 5615 5603 5594 5589
5415 5417 5432 5450 5459 5463 5470 5473 5480 5481 5474 5505 5513 5509 5511 5515 5515 5515 5514 5523 5518 5525 5511 5528 5522 5543 5554 5558 5557 5551 5551 5519 5519 5519 5531 5535 5551 5585 5600 5602 5608 5605 5589 5581 5575
5405 5411 5423 5441 5448 5452 5469 5475 5487 5490 5487 5504 5500 5497 5504 5514 5517 5516 5517 5526 5523 5515 5517 5503 5521 5537 5544 5550 5555 5543 5542 5544 5521 5465 5502 5529 5553 5582 5594 5585 5581 5575 5572 5567 5565
5397 5402 5421 5436 5441 5440 5436 5477 5475 5486 5495 5505 5505 5508 5509 5508 5514 5515 5513 5531 5522 5520 5524 5523 5508 5525 5532 5541 5538 5538 5539 5528 5496 5489 5481 5528 5542 5563 5586 5584 5563 5559 5557 5558 5559
5387 5390 5420 5426 5426 5427 5439 5453 5467 5482 5497 5495 5487 5504 5517 5516 5511 5512 5519 5525 5528 5519 5517 5518 5516 5512 5521 5524 5531 5529 5530 5533 5525 5503 5508 5505 5539 5553 5567 5572 5555 5547 5550 5550 5548
5385 5385 5409 5410 5404 5413 5441 5438 5465 5477 5483 5489 5493 5496 5510 5514 5504 5508 5510 5524 5526 5524 5511 5516 5506 5513 5520 5512 5514 5529 5528 5525 5512 5509 5491 5504 5527 5550 5550 5553 5547 5540 5541 5540 5536
5381 5389 5398 5401 5403 5421 5428 5444 5460 5474 5476 5484 5495 5508 5507 5504 5496 5508 5504 5514 5514 5515 5514 5508 5494 5480 5498 5498 5502 5512 5517 5521 5517 5508 5512 5503 5518 5529 5533 5538 5538 5536 5536 5532 5529
5374 5375 5378 5388 5408 5416 5431 5441 5447 5477 5481 5488 5492 5505 5495 5493 5491 5498 5499 5501 5503 5507 5505 5509 5487 5491 5501 5512 5503 5505 5511 5513 5519 5507 5517 5512 5520 5522 5524 5526 5522 5523 5522 5516 5512
5366 5374 5390 5401 5404 5419 5433 5444 5450 5455 5478 5491 5493 5503 5499 5489 5481 5481 5486 5491 5490 5498 5492 5495 5488 5483 5497 5502 5500 5504 5503 5509 5506 5511 5510 5514 5510 5518 5520 5518 5515 5513 5509 5506 5505
5360 5374 5382 5403 5408 5425 5436 5450 5464 5456 5474 5489 5504 5501 5505 5507 5505 5488 5495 5492 5493 5488 5487 5489 5477 5478 5468 5482 5487 5493 5491 5495 5500 5502 5497 5498 5503 5515 5517 5510 5505 5504 5498 5497 5497
5354 5376 5395 5411 5412 5431 5440 5457 5478 5477 5483 5496 5506 5505 5496 5510 5505 5503 5496 5493 5495 5494 5484 5480 5463 5460 5464 5448 5463 5467 5464 5485 5493 5497 5505 5497 5516 5506 5501 5501 5496 5494 5494 5492 5491